Location: Kuffner-Sternwarte
(48.2130°N, 16.2960°E)
Time: 13:11:46
(UTC+01:00)

COROT - Visible Passes

Search period start: 22 January 2018 00:00
Search period end: 01 February 2018 00:00
Orbit: 599 x 890 km, 90.0° (Epoch: 22 January)

Date Brightness Start Highest point End Pass type
(mag) Time Alt. Az. Time Alt. Az. Time Alt. Az.
22 Jan 8.2 17:48:45 10° SW 17:52:24 23° W 17:55:54 10° NNW visible
23 Jan 6.5 17:04:41 10° SSW 17:09:09 54° W 17:13:24 10° N visible
24 Jan 8.6 18:03:36 10° WSW 18:06:05 15° WNW 18:08:32 10° NW visible
25 Jan 7.5 17:18:41 10° SSW 17:22:42 33° W 17:26:36 10° NNW visible
27 Jan 8.3 17:33:02 10° SW 17:36:21 21° W 17:39:36 10° NNW visible
29 Jan 8.6 17:48:02 10° WSW 17:50:04 13° WNW 17:52:04 10° NW visible
